Location: Lafig�re
(44.4503°N, 4.0357°E)
Time: 21:47:59
(UTC+00:00)

Cosmos 1092 Rocket - Visible Passes

Search period start: 24 January 2021 00:00
Search period end: 03 February 2021 00:00
Orbit: 953 x 996 km, 82.9° (Epoch: 24 January)

Date Brightness Start Highest point End Pass type
(mag) Time Alt. Az. Time Alt. Az. Time Alt. Az.
24 Jan 4.5 05:02:39 10° N 05:08:44 60° ENE 05:14:49 10° SSE visible
24 Jan 4.2 18:33:51 10° SSW 18:40:01 70° W 18:46:10 10° N visible
24 Jan 6.8 20:24:42 10° WNW 20:26:34 11° WNW 20:28:28 10° NW visible
25 Jan 6.4 03:43:50 10° NNE 03:47:48 17° ENE 03:51:45 10° ESE visible
25 Jan 3.9 05:27:44 10° N 05:33:55 80° W 05:40:05 10° S visible
25 Jan 4.6 17:14:41 10° SSE 17:20:05 33° E 17:25:28 10° NNE visible
25 Jan 5.2 18:59:32 10° SW 19:05:18 40° WNW 19:11:04 10° N visible
26 Jan 5.7 04:08:03 10° N 04:13:23 30° ENE 04:18:42 10° SE visible
26 Jan 4.2 05:53:06 10° NNW 05:58:55 45° W 06:04:45 10° SSW visible
26 Jan 4.0 17:38:59 10° S 17:45:00 58° E 17:51:01 10° NNE visible
26 Jan 6.1 19:25:57 10° WSW 19:30:47 24° WNW 19:35:37 10° NNW visible
27 Jan 4.7 04:32:47 10° N 04:38:47 51° ENE 04:44:47 10° SSE visible
27 Jan 4.9 06:18:50 10° NNW 06:23:45 26° W 06:28:42 10° SW visible
27 Jan 4.1 18:03:54 10° S 18:10:04 82° W 18:16:15 10° N visible
27 Jan 6.7 19:53:31 10° W 19:56:27 14° WNW 19:59:24 10° NNW visible
28 Jan 6.6 03:14:21 10° NNE 03:17:42 15° ENE 03:21:02 10° E visible
28 Jan 3.9 04:57:47 10° N 05:04:00 88° E 05:10:12 10° S visible
28 Jan 5.0 18:29:24 10° SSW 18:35:19 47° WNW 18:41:14 10° N visible
29 Jan 5.9 03:38:19 10° NNE 03:43:21 25° ENE 03:48:23 10° SE visible
29 Jan 4.0 05:23:05 10° NNW 05:29:02 53° W 05:35:03 10° SSW visible
29 Jan 5.9 18:55:35 10° SW 19:00:44 27° WNW 19:05:54 10° NNW visible
30 Jan 5.0 04:02:56 10° N 04:08:48 43° ENE 04:14:40 10° SSE visible
30 Jan 4.7 05:48:41 10° NNW 05:53:56 30° W 05:59:13 10° SW visible
30 Jan 4.0 17:33:59 10° S 17:40:09 86° E 17:46:19 10° N visible
30 Jan 6.6 19:22:43 10° W 19:26:21 16° WNW 19:30:00 10° NNW visible
31 Jan 6.7 02:45:04 10° NE 02:47:36 12° ENE 02:50:06 10° E visible
31 Jan 4.1 04:27:52 10° N 04:34:04 76° E 04:40:17 10° SSE visible
31 Jan 5.3 06:14:52 10° NW 06:18:40 17° W 06:22:29 10° WSW visible
31 Jan 4.7 17:59:19 10° SSW 18:05:20 55° WNW 18:11:23 10° N visible
01 Feb 6.1 03:08:37 10° NNE 03:13:18 22° ENE 03:17:59 10° ESE visible
01 Feb 3.9 04:53:04 10° NNW 04:59:10 63° W 05:05:17 10° S visible
01 Feb 5.7 18:25:17 10° SW 18:30:43 32° WNW 18:36:08 10° N visible
02 Feb 5.2 03:33:06 10° N 03:38:48 37° ENE 03:44:30 10° SE visible
02 Feb 4.4 05:18:34 10° NNW 05:24:06 36° W 05:29:40 10° SSW visible
02 Feb 6.5 18:52:05 10° WSW 18:56:16 19° WNW 19:00:28 10° NNW visible
